Mesquite, TX

4:51 PM CST on January 21, 2017 (GMT -0600)
Mesquite

Weather History for KHQZ - February, 2014

Change the Weather History Date:

Wednesday, February 26, 2014

  Actual Average (KDFW) Record (KDFW)
Temperature  
Mean Temperature 36 °F -  
Max Temperature 41 °F 58 °F 90 °F (1917)
Min Temperature 28 °F 40 °F 21 °F (1960)
Degree Days  
Heating Degree Days 30    
Moisture  
Dew Point 19 °F    
Average Humidity 52    
Maximum Humidity 71    
Minimum Humidity 36    
Precipitation  
Precipitation 0.00 in - - ()
Sea Level Pressure  
Sea Level Pressure 30.23 in    
Wind  
Wind Speed 14 mph (North)    
Max Wind Speed 24 mph    
Max Gust Speed 34 mph    
Visibility 10 miles    
Events      
Averages and records for this station are not official NWS values.
T = Trace of Precipitation, MM = Missing Value Source: NWS Daily Summary

Daily Weather History Graph

Daily Weather History Graph

Search for Another Location

Airport or City:

Trip Planner

Search our weather history database for the weather conditions in past years. The results will help you decide how hot, cold, wet, or windy it might be!

Date:

Astronomy

Feb. 26, 2014 Rise Set
Actual Time 6:57 AM CST 6:21 PM CST
Civil Twilight 6:32 AM CST 6:45 PM CST
Nautical Twilight 6:03 AM CST 7:14 PM CST
Astronomical Twilight 5:35 AM CST 7:43 PM CST
Moon 4:37 AM CST (2/26) 3:42 PM CST (2/26)
Length of Visible Light 12h 13m
Length of Day
11h 23m
Waning Crescent, 10% of the Moon is Illuminated
Feb 26
Waning Crescent
Mar 1
New
Mar 8
First Quarter
Mar 16
Full
Mar 23
Last Quarter

Hourly Weather History & Observations

Time (CST) Temp. Windchill Dew Point Humidity Pressure Visibility Wind Dir Wind Speed Gust Speed Precip Events Conditions
12:15 AM 41.0 °F 32.8 °F 32.2 °F 71% 30.16 in 10.0 mi North 16.1 mph - N/A   Overcast
12:35 AM 41.2 °F 34.1 °F 32.4 °F 71% 30.16 in 10.0 mi North 12.7 mph 18.4 mph N/A   Overcast
12:55 AM 41.0 °F 32.2 °F 30.2 °F 65% 30.18 in 10.0 mi North 18.4 mph 27.6 mph N/A   Overcast
1:15 AM 40.8 °F 31.4 °F 29.8 °F 65% 30.18 in 10.0 mi North 20.7 mph 27.6 mph N/A   Overcast
1:35 AM 40.8 °F 31.7 °F 30.0 °F 65% 30.18 in 10.0 mi North 19.6 mph 26.5 mph N/A   Overcast
2:00 AM 40.1 °F 29.7 °F 29.7 °F 66% 30.20 in 10.0 mi North 24.2 mph 31.1 mph N/A   Overcast
2:15 AM 39.7 °F 31.2 °F 29.5 °F 67% 30.20 in 10.0 mi North 16.1 mph 28.8 mph N/A   Overcast
2:35 AM 38.5 °F 27.8 °F 28.9 °F 69% 30.20 in 10.0 mi North 23.0 mph 33.4 mph N/A   Overcast
2:55 AM 38.5 °F 27.8 °F 27.3 °F 64% 30.21 in 10.0 mi North 23.0 mph 32.2 mph N/A   Overcast
3:15 AM 38.3 °F 29.3 °F 25.7 °F 61% 30.21 in 10.0 mi North 16.1 mph 29.9 mph N/A   Overcast
3:35 AM 37.8 °F 29.4 °F 24.3 °F 58% 30.22 in 10.0 mi North 13.8 mph 27.6 mph N/A   Overcast
3:55 AM 36.7 °F 26.0 °F 22.8 °F 57% 30.22 in 10.0 mi North 20.7 mph 34.5 mph N/A   Overcast
4:15 AM 36.0 °F 26.0 °F 23.0 °F 59% 30.22 in 10.0 mi North 17.3 mph 31.1 mph N/A   Overcast
4:35 AM 35.6 °F 25.5 °F 23.4 °F 61% 30.23 in 10.0 mi North 17.3 mph 23.0 mph N/A   Overcast
4:55 AM 34.7 °F 23.7 °F 22.8 °F 62% 30.23 in 10.0 mi North 19.6 mph 31.1 mph N/A   Overcast
5:15 AM 34.2 °F 23.0 °F 22.1 °F 61% 30.24 in 10.0 mi North 19.6 mph 27.6 mph N/A   Overcast
5:35 AM 33.8 °F 22.8 °F 21.7 °F 61% 30.26 in 10.0 mi North 18.4 mph 24.2 mph N/A   Overcast
5:55 AM 33.1 °F 22.2 °F 21.2 °F 62% 30.26 in 10.0 mi North 17.3 mph 25.3 mph N/A   Overcast
6:15 AM 32.9 °F 21.6 °F 20.8 °F 61% 30.27 in 10.0 mi North 18.4 mph 24.2 mph N/A   Overcast
6:40 AM 32.5 °F 21.9 °F 20.3 °F 61% 30.27 in 10.0 mi North 16.1 mph 20.7 mph N/A   Overcast
6:55 AM 33.8 °F 23.5 °F 19.4 °F 56% 30.29 in 10.0 mi North 16.1 mph 24.2 mph N/A   Overcast
7:15 AM 32.0 °F 21.2 °F 19.4 °F 60% 30.29 in 10.0 mi North 16.1 mph - N/A   Overcast
7:35 AM 32.0 °F 22.1 °F 19.2 °F 59% 30.30 in 10.0 mi NNW 13.8 mph - N/A   Overcast
7:55 AM 33.8 °F 23.5 °F 17.6 °F 52% 30.31 in 10.0 mi NNW 16.1 mph 29.9 mph N/A   Overcast
8:15 AM 32.0 °F 20.5 °F 15.4 °F 51% 30.31 in 10.0 mi North 18.4 mph 29.9 mph N/A   Overcast
8:35 AM 32.0 °F 20.1 °F 16.5 °F 53% 30.31 in 10.0 mi North 19.6 mph 26.5 mph N/A   Overcast
8:55 AM 33.8 °F 22.5 °F 14.0 °F 44% 30.32 in 10.0 mi NNW 19.6 mph 25.3 mph N/A   Scattered Clouds
9:15 AM 31.8 °F 20.6 °F 15.6 °F 51% 30.32 in 10.0 mi North 17.3 mph 24.2 mph N/A   Clear
9:35 AM 32.2 °F 21.8 °F 15.1 °F 49% 30.32 in 10.0 mi North 15.0 mph 26.5 mph N/A   Clear
9:55 AM 32.0 °F 20.8 °F 15.8 °F 51% 30.33 in - NNW 17.3 mph 21.9 mph N/A   Scattered Clouds
10:15 AM 32.0 °F 21.6 °F 15.1 °F 50% 30.32 in 10.0 mi North 15.0 mph 21.9 mph N/A   Clear
10:35 AM 32.0 °F 21.6 °F 15.4 °F 51% 30.32 in 10.0 mi North 15.0 mph 18.4 mph N/A   Clear
10:55 AM 33.8 °F 25.8 °F 15.8 °F 48% 30.31 in - NNW 10.4 mph 17.3 mph N/A   Clear
11:15 AM 35.1 °F 26.4 °F 16.2 °F 46% 30.31 in 10.0 mi NNW 12.7 mph 21.9 mph N/A   Clear
11:35 AM 36.5 °F 29.2 °F 16.9 °F 45% 30.29 in 10.0 mi North 10.4 mph 20.7 mph N/A   Clear
11:55 AM 36.3 °F 29.5 °F 16.0 °F 44% 30.28 in 10.0 mi North 9.2 mph 20.7 mph N/A   Clear
12:15 PM 37.4 °F 28.5 °F 16.9 °F 43% 30.28 in 10.0 mi North 15.0 mph 21.9 mph N/A   Clear
12:35 PM 37.6 °F 30.0 °F 16.7 °F 43% 30.27 in 10.0 mi North 11.5 mph 18.4 mph N/A   Clear
12:55 PM 37.4 °F 29.8 °F 15.8 °F 41% 30.25 in - North 11.5 mph 17.3 mph N/A   Clear
1:15 PM 39.2 °F 32.5 °F 17.1 °F 41% 30.24 in 10.0 mi NNE 10.4 mph - N/A   Clear
1:35 PM 39.6 °F 32.1 °F 17.1 °F 40% 30.22 in 10.0 mi North 12.7 mph - N/A   Clear
1:55 PM 39.2 °F 31.2 °F 17.6 °F 42% 30.21 in - North 13.8 mph 18.4 mph N/A   Clear
2:15 PM 39.2 °F 32.0 °F 16.9 °F 40% 30.21 in 10.0 mi North 11.5 mph 16.1 mph N/A   Clear
2:35 PM 39.4 °F 31.8 °F 16.2 °F 39% 30.20 in 10.0 mi North 12.7 mph 17.3 mph N/A   Clear
2:55 PM 40.5 °F 33.2 °F 16.0 °F 37% 30.19 in 10.0 mi North 12.7 mph - N/A   Clear
3:15 PM 40.5 °F 33.2 °F 16.3 °F 38% 30.19 in 10.0 mi NNW 12.7 mph - N/A   Clear
3:35 PM 40.1 °F 34.1 °F 17.2 °F 40% 30.19 in 10.0 mi North 9.2 mph 19.6 mph N/A   Clear
3:55 PM 41.0 °F 34.3 °F 15.8 °F 36% 30.19 in - North 11.5 mph 17.3 mph N/A   Clear
4:15 PM 41.0 °F 33.5 °F 16.2 °F 37% 30.18 in 10.0 mi North 13.8 mph 18.4 mph N/A   Clear
4:35 PM 41.2 °F 35.5 °F 16.2 °F 36% 30.18 in 10.0 mi North 9.2 mph 17.3 mph N/A   Clear
4:55 PM 41.0 °F 33.9 °F 15.8 °F 36% 30.17 in - NNW 12.7 mph 18.4 mph N/A   Clear
5:15 PM 40.1 °F 34.7 °F 15.6 °F 37% 30.17 in 10.0 mi North 8.1 mph - N/A   Clear
5:35 PM 39.4 °F 34.5 °F 15.6 °F 38% 30.17 in 10.0 mi North 6.9 mph - N/A   Clear
5:55 PM 38.8 °F 33.2 °F 16.2 °F 40% 30.17 in 10.0 mi NNW 8.1 mph - N/A   Clear
6:15 PM 37.8 °F 32.5 °F 16.9 °F 43% 30.18 in 10.0 mi North 6.9 mph - N/A   Clear
6:35 PM 36.7 °F 32.9 °F 17.1 °F 45% 30.18 in 10.0 mi NNW 4.6 mph - N/A   Clear
6:55 PM 35.6 °F 32.8 °F 17.6 °F 48% 30.18 in - NW 3.5 mph - N/A   Clear
7:15 PM 35.6 °F 32.8 °F 17.2 °F 47% 30.18 in 10.0 mi NNW 3.5 mph - N/A   Clear
7:35 PM 35.4 °F 32.6 °F 17.4 °F 48% 30.18 in 10.0 mi NNW 3.5 mph - N/A   Clear
7:55 PM 35.6 °F - 17.6 °F 48% 30.18 in - Calm Calm - N/A   Clear
8:15 PM 34.2 °F 30.0 °F 17.8 °F 51% 30.18 in 10.0 mi NNW 4.6 mph - N/A   Clear
8:35 PM 34.2 °F 31.2 °F 17.6 °F 51% 30.18 in 10.0 mi NW 3.5 mph - N/A   Clear
8:55 PM 33.1 °F - 17.8 °F 53% 30.19 in 10.0 mi Calm Calm - N/A   Clear
9:15 PM 32.9 °F 29.8 °F 17.4 °F 53% 30.19 in 10.0 mi NNW 3.5 mph - N/A   Clear
9:35 PM 31.8 °F 28.5 °F 18.3 °F 57% 30.19 in 10.0 mi NNW 3.5 mph - N/A   Clear
9:55 PM 31.8 °F - 18.0 °F 57% 30.19 in 10.0 mi Calm Calm - N/A   Clear
10:15 PM 32.0 °F - 17.8 °F 56% 30.19 in 10.0 mi Calm Calm - N/A   Clear
10:35 PM 32.2 °F - 17.4 °F 55% 30.19 in 10.0 mi Calm Calm - N/A   Clear
10:55 PM 31.8 °F - 17.6 °F 56% 30.19 in 10.0 mi Calm Calm - N/A   Clear
11:15 PM 32.0 °F - 17.8 °F 56% 30.19 in 10.0 mi Calm Calm - N/A   Clear
11:35 PM 30.0 °F - 18.0 °F 61% 30.19 in 10.0 mi Calm Calm - N/A   Clear
11:55 PM 28.6 °F - 18.7 °F 66% 30.19 in 10.0 mi Calm Calm - N/A   Clear